CCA1689 ZBAA-ZYHB

Flight info

Callsign CCA1689
Flight time 1h 21m
Altitude 39100
Route DOTRA5Y DOTRA B334 TGO G212 RUSBO W203 PIGAM PIG19A
Aircraft B77W/H-SDE1E2E3FGHIJ2J3J4J5M1RWXY/LB1D1

Departure

Time 2026-04-20 20:50
Airport Beijing Capital International Airport (ZBAA)

Arrival

Time 2026-04-20 22:11
Airport Harbin Taiping International Airport (ZYHB)
Time Latitude Longitude Altitude Speed Heading
2026-04-20 20:25 40.07147 116.61034 131 ft 0 kts 83°
2026-04-20 20:38 40.07146 116.61017 131 ft 2 kts 94°
2026-04-20 20:38 40.07149 116.60998 131 ft 2 kts 108°
2026-04-20 20:39 40.07155 116.60980 131 ft 2 kts 121°
2026-04-20 20:39 40.07163 116.60964 131 ft 2 kts 133°
2026-04-20 20:39 40.07174 116.60951 131 ft 2 kts 146°
2026-04-20 20:39 40.07187 116.60942 131 ft 2 kts 159°
2026-04-20 20:40 40.07201 116.60936 131 ft 2 kts 171°
2026-04-20 20:40 40.07211 116.60935 131 ft 0 kts 175°
2026-04-20 20:42 40.07203 116.60936 131 ft 4 kts 174°
2026-04-20 20:43 40.07131 116.60947 131 ft 15 kts 173°
2026-04-20 20:43 40.07024 116.60964 131 ft 15 kts 173°
2026-04-20 20:43 40.06936 116.60927 131 ft 13 kts 240°
2026-04-20 20:43 40.06918 116.60813 131 ft 12 kts 263°
2026-04-20 20:44 40.06907 116.60702 131 ft 14 kts 263°
2026-04-20 20:44 40.06891 116.60530 131 ft 22 kts 263°
2026-04-20 20:44 40.06872 116.60319 131 ft 21 kts 263°
2026-04-20 20:44 40.06855 116.60135 131 ft 19 kts 259°
2026-04-20 20:45 40.06766 116.60059 131 ft 15 kts 175°
2026-04-20 20:45 40.06662 116.60074 131 ft 14 kts 173°
2026-04-20 20:45 40.06558 116.60090 131 ft 15 kts 175°
2026-04-20 20:45 40.06453 116.60104 131 ft 15 kts 174°
2026-04-20 20:46 40.06348 116.60120 131 ft 15 kts 174°
2026-04-20 20:46 40.06242 116.60137 131 ft 15 kts 172°
2026-04-20 20:46 40.06136 116.60156 131 ft 16 kts 173°
2026-04-20 20:46 40.06000 116.60178 131 ft 22 kts 173°
2026-04-20 20:47 40.05841 116.60204 131 ft 16 kts 173°
2026-04-20 20:47 40.05734 116.60220 131 ft 14 kts 173°
2026-04-20 20:47 40.05635 116.60234 131 ft 13 kts 174°
2026-04-20 20:47 40.05550 116.60199 131 ft 13 kts 236°
2026-04-20 20:48 40.05549 116.60077 131 ft 12 kts 284°
2026-04-20 20:48 40.05602 116.60008 131 ft 10 kts 342°
2026-04-20 20:48 40.05611 116.60005 131 ft 0 kts 349°
2026-04-20 20:49 40.05613 116.60005 131 ft 2 kts 349°
2026-04-20 20:49 40.05809 116.59970 131 ft 68 kts 353°
2026-04-20 20:49 40.06552 116.59853 132 ft 146 kts 353°
2026-04-20 20:49 40.07725 116.59671 563 ft 181 kts 352°
2026-04-20 20:50 40.08946 116.59426 1590 ft 174 kts 348°
2026-04-20 20:50 40.10142 116.59185 2112 ft 183 kts 351°
2026-04-20 20:50 40.11422 116.59048 2813 ft 186 kts 355°
2026-04-20 20:50 40.12685 116.58981 3572 ft 185 kts 348°
2026-04-20 20:51 40.14026 116.58707 4013 ft 202 kts 347°
2026-04-20 20:51 40.15476 116.58450 4554 ft 219 kts 349°
2026-04-20 20:51 40.17014 116.58206 5138 ft 234 kts 349°
2026-04-20 20:51 40.18684 116.57944 5692 ft 251 kts 350°
2026-04-20 20:52 40.20433 116.57670 6453 ft 257 kts 349°
2026-04-20 20:52 40.22193 116.57394 7439 ft 258 kts 349°
2026-04-20 20:52 40.23974 116.57112 8346 ft 261 kts 350°
2026-04-20 20:52 40.25783 116.56825 8779 ft 265 kts 349°
2026-04-20 20:53 40.27614 116.56516 8828 ft 264 kts 349°
2026-04-20 20:53 40.29459 116.56203 8850 ft 264 kts 349°
2026-04-20 20:53 40.31262 116.55898 8857 ft 263 kts 349°
2026-04-20 20:53 40.33079 116.55591 8871 ft 263 kts 349°
2026-04-20 20:54 40.34906 116.55283 8851 ft 262 kts 349°
2026-04-20 20:54 40.36699 116.54980 8850 ft 266 kts 349°
2026-04-20 20:54 40.38601 116.54657 9531 ft 275 kts 349°
2026-04-20 20:54 40.40435 116.54350 10630 ft 268 kts 348°
2026-04-20 20:55 40.42340 116.54104 11100 ft 287 kts 354°
2026-04-20 20:55 40.44386 116.54160 11593 ft 305 kts 359°
2026-04-20 20:55 40.46574 116.54339 12036 ft 323 kts 359°
2026-04-20 20:55 40.48868 116.54530 12511 ft 340 kts
2026-04-20 20:56 40.51256 116.55059 12990 ft 360 kts 10°
2026-04-20 20:56 40.53699 116.56176 13487 ft 381 kts 20°
2026-04-20 20:56 40.56043 116.57916 14052 ft 399 kts 30°
2026-04-20 20:56 40.58209 116.60229 14826 ft 408 kts 36°
2026-04-20 20:57 40.60358 116.62704 15722 ft 411 kts 36°
2026-04-20 20:57 40.62501 116.65163 16545 ft 414 kts 35°
2026-04-20 20:57 40.64673 116.67641 17289 ft 420 kts 35°
2026-04-20 20:57 40.66922 116.70198 17973 ft 427 kts 35°
2026-04-20 20:58 40.69149 116.72725 18673 ft 432 kts 34°
2026-04-20 20:58 40.71428 116.75292 19438 ft 434 kts 32°
2026-04-20 20:58 40.73926 116.77539 20125 ft 430 kts 22°
2026-04-20 20:58 40.76592 116.79176 20688 ft 428 kts 13°
2026-04-20 20:59 40.79443 116.80218 21276 ft 424 kts
2026-04-20 20:59 40.82344 116.80629 22070 ft 417 kts 355°
2026-04-20 20:59 40.85252 116.80769 22936 ft 415 kts 354°
2026-04-20 20:59 40.88091 116.80894 23686 ft 415 kts 354°
2026-04-20 21:00 40.90984 116.81027 24353 ft 417 kts 354°
2026-04-20 21:00 40.93908 116.81165 24835 ft 423 kts 353°
2026-04-20 21:00 40.96864 116.81309 25349 ft 426 kts 353°
2026-04-20 21:00 40.99825 116.81458 25903 ft 429 kts 353°
2026-04-20 21:01 41.02781 116.81608 26465 ft 431 kts 352°
2026-04-20 21:01 41.05813 116.81762 26963 ft 435 kts 352°
2026-04-20 21:01 41.08828 116.81916 27379 ft 440 kts 352°
2026-04-20 21:01 41.11887 116.82074 27909 ft 443 kts 352°
2026-04-20 21:02 41.14984 116.82237 28575 ft 444 kts 351°
2026-04-20 21:02 41.18053 116.82398 29136 ft 445 kts 351°
2026-04-20 21:02 41.21143 116.82559 29712 ft 447 kts 351°
2026-04-20 21:02 41.24240 116.82723 30347 ft 447 kts 349°
2026-04-20 21:03 41.27354 116.82886 30962 ft 448 kts 349°
2026-04-20 21:03 41.30467 116.83051 31635 ft 447 kts 349°
2026-04-20 21:03 41.33546 116.83216 32325 ft 445 kts 349°
2026-04-20 21:03 41.36650 116.83381 32968 ft 443 kts 349°
2026-04-20 21:04 41.39781 116.83548 33610 ft 440 kts 348°
2026-04-20 21:04 41.42848 116.83710 34141 ft 439 kts 348°
2026-04-20 21:04 41.45924 116.83871 34582 ft 439 kts 348°
2026-04-20 21:04 41.48957 116.84032 35064 ft 437 kts 348°
2026-04-20 21:05 41.51966 116.84192 35543 ft 435 kts 347°
2026-04-20 21:05 41.55018 116.84351 35855 ft 437 kts 348°
2026-04-20 21:05 41.58067 116.84546 36217 ft 443 kts 351°
2026-04-20 21:05 41.61155 116.85197 36821 ft 456 kts 359°
2026-04-20 21:06 41.64220 116.86449 37474 ft 468 kts
2026-04-20 21:06 41.67231 116.88294 37618 ft 488 kts 15°
2026-04-20 21:06 41.70101 116.90781 37801 ft 509 kts 24°
2026-04-20 21:06 41.72801 116.93964 37779 ft 532 kts 34°
2026-04-20 21:07 41.75182 116.97915 38209 ft 547 kts 46°
2026-04-20 21:07 41.77026 117.02362 38777 ft 553 kts 56°
2026-04-20 21:07 41.78566 117.07063 39062 ft 552 kts 58°
2026-04-20 21:07 41.80089 117.11793 39112 ft 554 kts 57°
2026-04-20 21:08 41.83194 117.21229 39106 ft 559 kts 57°
2026-04-20 21:08 41.86386 117.30746 39105 ft 563 kts 57°
2026-04-20 21:09 41.89607 117.40277 39118 ft 560 kts 57°
2026-04-20 21:09 41.92824 117.49757 39135 ft 563 kts 56°
2026-04-20 21:10 41.96060 117.59296 39076 ft 560 kts 56°
2026-04-20 21:10 41.99287 117.68810 39058 ft 560 kts 57°
2026-04-20 21:11 42.02493 117.78285 39059 ft 559 kts 57°
2026-04-20 21:11 42.05684 117.87743 39069 ft 558 kts 57°
2026-04-20 21:12 42.08871 117.97212 39067 ft 558 kts 57°
2026-04-20 21:12 42.12062 118.06718 39049 ft 561 kts 57°
2026-04-20 21:13 42.15250 118.16251 39047 ft 560 kts 57°
2026-04-20 21:13 42.18415 118.25754 39052 ft 557 kts 57°
2026-04-20 21:14 42.21784 118.35144 39059 ft 556 kts 54°
2026-04-20 21:14 42.25184 118.44443 39048 ft 557 kts 55°
2026-04-20 21:15 42.28558 118.53737 39041 ft 552 kts 54°
2026-04-20 21:15 42.31927 118.63058 39043 ft 553 kts 54°
2026-04-20 21:16 42.35291 118.72402 39017 ft 555 kts 55°
2026-04-20 21:16 42.38646 118.81761 39023 ft 555 kts 55°
2026-04-20 21:17 42.41980 118.91103 38998 ft 551 kts 55°
2026-04-20 21:17 42.45297 119.00422 38995 ft 552 kts 56°
2026-04-20 21:18 42.48616 119.09780 38992 ft 553 kts 56°
2026-04-20 21:18 42.51918 119.19122 38994 ft 554 kts 56°
2026-04-20 21:19 42.55222 119.28508 38987 ft 551 kts 56°
2026-04-20 21:20 42.60134 119.42515 38988 ft 549 kts 56°
2026-04-20 21:20 42.63401 119.51868 38985 ft 549 kts 56°
2026-04-20 21:21 42.66682 119.61291 38990 ft 552 kts 56°
2026-04-20 21:21 42.69937 119.70677 38973 ft 550 kts 57°
2026-04-20 21:22 42.73176 119.80048 38960 ft 550 kts 57°
2026-04-20 21:22 42.76424 119.89474 38965 ft 551 kts 57°
2026-04-20 21:23 42.79658 119.98895 38972 ft 550 kts 57°
2026-04-20 21:23 42.82855 120.08239 38966 ft 549 kts 57°
2026-04-20 21:24 42.86094 120.17735 38961 ft 552 kts 57°
2026-04-20 21:24 42.89300 120.27171 38966 ft 551 kts 57°
2026-04-20 21:25 42.92500 120.36623 38966 ft 548 kts 57°
2026-04-20 21:25 42.95664 120.45995 38956 ft 552 kts 57°
2026-04-20 21:26 42.98930 120.55419 38961 ft 547 kts 55°
2026-04-20 21:26 43.02279 120.64751 38955 ft 545 kts 56°
2026-04-20 21:27 43.05588 120.74012 38936 ft 548 kts 56°
2026-04-20 21:27 43.08920 120.83390 38954 ft 547 kts 56°
2026-04-20 21:28 43.12223 120.92724 38954 ft 547 kts 56°
2026-04-20 21:28 43.15512 121.02057 38948 ft 546 kts 56°
2026-04-20 21:29 43.18790 121.11388 38955 ft 547 kts 57°
2026-04-20 21:29 43.22068 121.20759 38955 ft 546 kts 57°
2026-04-20 21:30 43.25347 121.30159 38955 ft 547 kts 56°
2026-04-20 21:30 43.28610 121.39548 38947 ft 548 kts 57°
2026-04-20 21:31 43.31866 121.48953 38926 ft 544 kts 56°
2026-04-20 21:31 43.35113 121.58360 38945 ft 547 kts 56°
2026-04-20 21:32 43.38337 121.67731 38936 ft 547 kts 57°
2026-04-20 21:32 43.41581 121.77196 38925 ft 546 kts 57°
2026-04-20 21:33 43.44801 121.86623 38924 ft 548 kts 57°
2026-04-20 21:33 43.48019 121.96081 38918 ft 546 kts 57°
2026-04-20 21:34 43.51228 122.05537 38918 ft 549 kts 57°
2026-04-20 21:34 43.54457 122.15093 38924 ft 548 kts 57°
2026-04-20 21:35 43.58197 122.23979 38900 ft 532 kts 45°
2026-04-20 21:35 43.62526 122.32234 38910 ft 530 kts 45°
2026-04-20 21:36 43.66832 122.40460 38902 ft 531 kts 45°
2026-04-20 21:36 43.71137 122.48721 38909 ft 529 kts 45°
2026-04-20 21:37 43.75449 122.57028 38910 ft 528 kts 45°
2026-04-20 21:37 43.79706 122.65263 38916 ft 527 kts 46°
2026-04-20 21:38 43.83943 122.73480 38885 ft 524 kts 46°
2026-04-20 21:38 43.88182 122.81723 38875 ft 528 kts 46°
2026-04-20 21:39 43.92399 122.89954 38885 ft 524 kts 46°
2026-04-20 21:39 43.96668 122.98163 38894 ft 523 kts 45°
2026-04-20 21:40 44.00949 123.06222 38879 ft 520 kts 46°
2026-04-20 21:40 44.05208 123.14268 38886 ft 522 kts 45°
2026-04-20 21:41 44.09501 123.22410 38887 ft 520 kts 46°
2026-04-20 21:41 44.13728 123.30453 38891 ft 521 kts 46°
2026-04-20 21:42 44.18007 123.38621 38889 ft 517 kts 46°
2026-04-20 21:42 44.22242 123.46725 38889 ft 518 kts 46°
2026-04-20 21:43 44.26459 123.54825 38877 ft 517 kts 46°
2026-04-20 21:43 44.30687 123.62962 38877 ft 518 kts 46°
2026-04-20 21:44 44.34890 123.71078 38866 ft 519 kts 47°
2026-04-20 21:44 44.39123 123.79275 38857 ft 516 kts 47°
2026-04-20 21:45 44.43289 123.87364 38866 ft 516 kts 47°
2026-04-20 21:45 44.47485 123.95488 38677 ft 521 kts 47°
2026-04-20 21:45 44.49642 123.99606 37918 ft 527 kts 47°
2026-04-20 21:46 44.51800 124.03732 37245 ft 528 kts 46°
2026-04-20 21:46 44.54137 124.07664 36622 ft 517 kts 38°
2026-04-20 21:46 44.56730 124.10937 36078 ft 504 kts 29°
2026-04-20 21:46 44.59615 124.13638 35516 ft 491 kts 21°
2026-04-20 21:47 44.62649 124.15762 34983 ft 482 kts 17°
2026-04-20 21:47 44.65684 124.17715 34448 ft 478 kts 16°
2026-04-20 21:47 44.68632 124.19932 33930 ft 485 kts 24°
2026-04-20 21:47 44.71323 124.22750 33464 ft 493 kts 33°
2026-04-20 21:48 44.73766 124.26229 33000 ft 504 kts 42°
2026-04-20 21:48 44.75911 124.30119 32545 ft 511 kts 45°
2026-04-20 21:48 44.78016 124.34135 32011 ft 513 kts 45°
2026-04-20 21:48 44.80135 124.38203 31439 ft 515 kts 45°
2026-04-20 21:49 44.82234 124.42241 30786 ft 516 kts 44°
2026-04-20 21:49 44.84355 124.46327 30062 ft 516 kts 44°
2026-04-20 21:49 44.86453 124.50377 29428 ft 513 kts 44°
2026-04-20 21:49 44.88526 124.54387 28835 ft 510 kts 44°
2026-04-20 21:50 44.90622 124.58444 28200 ft 505 kts 44°
2026-04-20 21:50 44.92659 124.62395 27595 ft 500 kts 44°
2026-04-20 21:50 44.94683 124.66325 27023 ft 494 kts 44°
2026-04-20 21:50 44.96692 124.70231 26434 ft 487 kts 44°
2026-04-20 21:51 44.98655 124.74054 25879 ft 480 kts 44°
2026-04-20 21:51 45.00597 124.77838 25336 ft 473 kts 44°
2026-04-20 21:51 45.02481 124.81515 24811 ft 466 kts 44°
2026-04-20 21:51 45.04380 124.85224 24277 ft 459 kts 43°
2026-04-20 21:52 45.06210 124.88800 23774 ft 452 kts 43°
2026-04-20 21:52 45.08052 124.92406 23269 ft 446 kts 43°
2026-04-20 21:52 45.09850 124.95926 22776 ft 442 kts 43°
2026-04-20 21:52 45.11621 124.99394 22331 ft 442 kts 43°
2026-04-20 21:53 45.13414 125.02911 21852 ft 441 kts 44°
2026-04-20 21:53 45.15187 125.06396 21353 ft 436 kts 44°
2026-04-20 21:53 45.16946 125.09862 20865 ft 431 kts 44°
2026-04-20 21:53 45.18682 125.13286 20398 ft 426 kts 44°
2026-04-20 21:54 45.20405 125.16684 19933 ft 424 kts 44°
2026-04-20 21:54 45.22121 125.20073 19462 ft 422 kts 44°
2026-04-20 21:54 45.23805 125.23404 19013 ft 419 kts 44°
2026-04-20 21:54 45.25501 125.26763 18552 ft 416 kts 44°
2026-04-20 21:55 45.27157 125.30048 18085 ft 411 kts 44°
2026-04-20 21:55 45.28818 125.33347 17631 ft 407 kts 44°
2026-04-20 21:55 45.30448 125.36584 17175 ft 406 kts 44°
2026-04-20 21:55 45.32085 125.39838 16725 ft 406 kts 44°
2026-04-20 21:56 45.33716 125.43085 16282 ft 404 kts 45°
2026-04-20 21:56 45.35331 125.46307 15821 ft 400 kts 45°
2026-04-20 21:56 45.36937 125.49515 15388 ft 398 kts 45°
2026-04-20 21:56 45.38530 125.52697 14940 ft 396 kts 45°
2026-04-20 21:57 45.40123 125.55886 14502 ft 395 kts 45°
2026-04-20 21:57 45.41705 125.59054 14064 ft 394 kts 45°
2026-04-20 21:57 45.43284 125.62245 13615 ft 392 kts 47°
2026-04-20 21:57 45.44771 125.65449 13190 ft 388 kts 49°
2026-04-20 21:58 45.46234 125.68624 12765 ft 388 kts 49°
2026-04-20 21:58 45.47724 125.71856 12316 ft 388 kts 49°
2026-04-20 21:58 45.49178 125.75011 11891 ft 384 kts 49°
2026-04-20 21:58 45.50649 125.78202 11457 ft 381 kts 49°
2026-04-20 21:59 45.52087 125.81322 11043 ft 379 kts 49°
2026-04-20 21:59 45.53538 125.84473 10621 ft 377 kts 50°
2026-04-20 21:59 45.54963 125.87569 10209 ft 375 kts 50°
2026-04-20 21:59 45.56379 125.90649 9786 ft 369 kts 50°
2026-04-20 22:00 45.57767 125.93671 9373 ft 363 kts 50°
2026-04-20 22:00 45.59139 125.96660 9005 ft 356 kts 50°
2026-04-20 22:00 45.60476 125.99581 8869 ft 343 kts 50°
2026-04-20 22:00 45.61740 126.02344 8838 ft 328 kts 49°
2026-04-20 22:01 45.62966 126.05023 8816 ft 313 kts 49°
2026-04-20 22:01 45.64292 126.07320 8762 ft 288 kts 34°
2026-04-20 22:01 45.65762 126.09139 8542 ft 275 kts 30°
2026-04-20 22:01 45.67228 126.10843 7972 ft 275 kts 30°
2026-04-20 22:02 45.68716 126.12566 7360 ft 277 kts 31°
2026-04-20 22:02 45.70206 126.14307 6817 ft 276 kts 31°
2026-04-20 22:02 45.71678 126.16032 6260 ft 276 kts 32°
2026-04-20 22:02 45.73155 126.17763 5949 ft 271 kts 31°
2026-04-20 22:03 45.74594 126.19456 5819 ft 262 kts 31°
2026-04-20 22:03 45.75985 126.21090 5522 ft 261 kts 31°
2026-04-20 22:03 45.77390 126.22737 5153 ft 263 kts 31°
2026-04-20 22:03 45.78802 126.24396 4882 ft 260 kts 31°
2026-04-20 22:04 45.80183 126.26020 4768 ft 251 kts 31°
2026-04-20 22:04 45.81379 126.27799 4587 ft 256 kts 53°
2026-04-20 22:04 45.81909 126.30286 4226 ft 270 kts 85°
2026-04-20 22:04 45.81531 126.32951 3887 ft 274 kts 117°
2026-04-20 22:05 45.80506 126.35179 3627 ft 270 kts 130°
2026-04-20 22:05 45.79342 126.37228 3525 ft 262 kts 132°
2026-04-20 22:05 45.78135 126.39150 3251 ft 258 kts 146°
2026-04-20 22:05 45.76582 126.40191 3048 ft 236 kts 177°
2026-04-20 22:06 45.75051 126.40164 2991 ft 206 kts 205°
2026-04-20 22:06 45.73831 126.39374 2933 ft 183 kts 219°
2026-04-20 22:06 45.72790 126.38468 2900 ft 164 kts 224°
2026-04-20 22:06 45.71926 126.37543 2594 ft 157 kts 228°
2026-04-20 22:07 45.71093 126.36562 2262 ft 153 kts 227°
2026-04-20 22:07 45.70284 126.35610 2127 ft 152 kts 226°
2026-04-20 22:07 45.69477 126.34621 2112 ft 149 kts 229°
2026-04-20 22:07 45.68689 126.33651 2099 ft 147 kts 226°
2026-04-20 22:08 45.67917 126.32767 2119 ft 140 kts 226°
2026-04-20 22:08 45.67172 126.31897 2118 ft 138 kts 227°
2026-04-20 22:08 45.66420 126.31020 2108 ft 139 kts 226°
2026-04-20 22:08 45.65673 126.30148 1920 ft 138 kts 226°
2026-04-20 22:09 45.64919 126.29266 1735 ft 137 kts 225°
2026-04-20 22:09 45.64184 126.28407 1570 ft 138 kts 225°
2026-04-20 22:09 45.63434 126.27528 1354 ft 139 kts 225°
2026-04-20 22:09 45.62687 126.26684 1202 ft 140 kts 220°
2026-04-20 22:10 45.61911 126.25828 1008 ft 139 kts 223°
2026-04-20 22:10 45.61174 126.24925 806 ft 139 kts 223°
2026-04-20 22:10 45.60420 126.24036 608 ft 140 kts 221°
2026-04-20 22:10 45.59703 126.23187 519 ft 119 kts 220°
2026-04-20 22:11 45.59199 126.22594 519 ft 57 kts 218°
2026-04-20 22:11 45.59013 126.22377 519 ft 20 kts 220°
2026-04-20 22:11 45.58921 126.22249 519 ft 13 kts 238°
2026-04-20 22:11 45.58891 126.22134 519 ft 11 kts 251°
2026-04-20 22:12 45.58878 126.22031 519 ft 9 kts 287°
2026-04-20 22:12 45.58922 126.22008 519 ft 7 kts 15°
2026-04-20 22:12 45.58981 126.22055 519 ft 12 kts 35°
2026-04-20 22:12 45.59052 126.22134 519 ft 12 kts 38°
2026-04-20 22:13 45.59122 126.22217 519 ft 14 kts 40°
2026-04-20 22:13 45.59198 126.22308 519 ft 15 kts 39°
2026-04-20 22:13 45.59299 126.22427 519 ft 21 kts 39°
2026-04-20 22:13 45.59417 126.22566 519 ft 22 kts 39°
2026-04-20 22:14 45.59538 126.22705 519 ft 22 kts 40°
2026-04-20 22:14 45.59658 126.22846 519 ft 22 kts 39°
2026-04-20 22:14 45.59778 126.22987 519 ft 21 kts 37°
2026-04-20 22:14 45.59913 126.23018 519 ft 19 kts 24°
2026-04-20 22:15 45.60015 126.23128 519 ft 17 kts 39°
2026-04-20 22:15 45.60113 126.23242 519 ft 18 kts 39°
2026-04-20 22:15 45.60210 126.23354 519 ft 17 kts 38°
2026-04-20 22:15 45.60305 126.23463 519 ft 17 kts 39°
2026-04-20 22:16 45.60365 126.23528 519 ft 3 kts
2026-04-20 22:16 45.60393 126.23522 519 ft 4 kts 337°
2026-04-20 22:16 45.60460 126.23433 519 ft 18 kts 310°
2026-04-20 22:16 45.60556 126.23265 519 ft 22 kts 309°
2026-04-20 22:17 45.60652 126.23098 519 ft 20 kts 309°
2026-04-20 22:17 45.60739 126.22947 519 ft 19 kts 309°
2026-04-20 22:17 45.60821 126.22804 519 ft 17 kts 309°
2026-04-20 22:17 45.60916 126.22782 519 ft 14 kts 31°
2026-04-20 22:18 45.60995 126.22869 519 ft 14 kts 38°
2026-04-20 22:18 45.61069 126.22955 519 ft 13 kts 39°
2026-04-20 22:18 45.61140 126.23038 519 ft 12 kts 39°
2026-04-20 22:18 45.61208 126.23118 519 ft 12 kts 37°
2026-04-20 22:19 45.61286 126.23209 519 ft 17 kts 42°
2026-04-20 22:19 45.61382 126.23315 519 ft 16 kts 37°
2026-04-20 22:19 45.61433 126.23375 519 ft 8 kts 39°
2026-04-20 22:19 45.61479 126.23428 519 ft 9 kts 39°
2026-04-20 22:20 45.61533 126.23471 519 ft 6 kts
2026-04-20 22:20 45.61553 126.23456 519 ft 2 kts 323°
2026-04-20 22:20 45.61566 126.23438 519 ft 2 kts 313°
2026-04-20 22:20 45.61570 126.23433 519 ft 0 kts 313°